Location: Limerick
(52.6650°N, 8.6230°W)
Time: 20:38:41
(UTC+01:00)

ISS - Pass Details

Date: 26 May 2017
Orbit: 402 x 409 km, 51.6° (Epoch: 25 May)

Event Time Altitude Azimuth Distance (km) Brightness Sun altitude
Rises 02:21:49 0° 278° (W) 2,333 0.0 -15.4°
Reaches altitude 10° 02:23:55 10° 274° (W) 1,470 -1.1 -15.3°
Maximum altitude 02:27:09 57° 195° (SSW) 487 -3.8 -15.2°
Drops below altitude 10° 02:30:23 10° 116° (ESE) 1,462 -1.1 -15.1°
Sets 02:32:28 0° 112° (ESE) 2,319 -0.1 -15.0°
